EW6140 Weather Reports


time (UTC)temp
C
wind
direction
speed
KPH
gust
KPH
rain 1hr
cm
rain 24hr
cm
rain mn
cm
humidity
%
barometer
mb
20260503002055 -17 0.0 0.0 0.00 0.00 0.00 1013.5
20260503001607 -17 0.0 0.0 0.00 0.00 0.00 1013.4
20260503001056 -17 0.0 0.0 0.00 0.00 0.00 1013.4
20260503000559 -17 0.0 0.0 0.00 0.00 0.00 1013.2
20260503000057 -17 0.0 0.0 0.00 0.00 0.00 1013.3
20260502235554 -17 0.0 0.0 0.00 0.00 0.00 1013.3
20260502235054 -17 0.0 0.0 0.00 0.00 0.00 1013.2
20260502234556 -17 0.0 0.0 0.00 0.00 0.00 1013.2
20260502234056 -17 0.0 0.0 0.00 0.00 0.00 1013.1
20260502233557 3 0.0 4.8 0.00 0.00 0.00 67 1013.2
20260502233055 3 0 0.0 4.8 0.00 0.00 0.00 67 1013.2
20260502232559 3 0 0.0 0.0 0.00 0.00 0.00 67 1013.1
20260502232058 4 0 0.0 1.6 0.00 0.00 0.00 67 1013.1
20260502231559 4 0 0.0 1.6 0.00 0.00 0.00 66 1013.0
20260502231058 4 0 0.0 1.6 0.00 0.00 0.00 66 1013.0
20260502230557 4 0 0.0 0.0 0.00 0.00 0.00 65 1013.0
20260502230056 4 0 0.0 0.0 0.00 0.00 0.00 66 1013.0
20260502225557 4 0 0.0 1.6 0.00 0.00 0.00 66 1013.0
20260502225054 4 0 0.0 1.6 0.00 0.00 0.00 66 1013.1
20260502224554 4 0 0.0 0.0 0.00 0.00 0.00 67 1013.0
20260502224054 4 0 0.0 0.0 0.00 0.00 0.00 65 1013.1
20260502223555 4 0 0.0 0.0 0.00 0.00 0.00 65 1013.0
20260502223057 5 0 0.0 0.0 0.00 0.00 0.00 66 1013.1
20260502222556 5 0 0.0 1.6 0.00 0.00 0.00 66 1013.1
20260502222058 5 0 0.0 1.6 0.00 0.00 0.00 67 1013.0
20260502221600 5 0 0.0 0.0 0.00 0.00 0.00 67 1012.9
20260502221058 5 0 0.0 0.0 0.00 0.00 0.00 65 1013.0
20260502220600 5 0 0.0 0.0 0.00 0.00 0.00 67 1012.9
20260502220059 5 0 0.0 1.6 0.00 0.00 0.00 65 1013.0
20260502215559 5 0 0.0 1.6 0.00 0.00 0.00 65 1012.9
20260502215058 5 0 0.0 0.0 0.00 0.00 0.00 66 1012.9
20260502214558 5 0 0.0 0.0 0.00 0.00 0.00 66 1012.9
20260502214059 5 0 0.0 3.2 0.00 0.00 0.00 67 1012.9
20260502213559 5 0 0.0 4.8 0.00 0.00 0.00 65 1012.9
20260502213100 5 0 0.0 4.8 0.00 0.00 0.00 65 1012.8
20260502212600 5 0 1.6 4.8 0.00 0.00 0.00 65 1012.9
20260502212101 5 0 0.0 3.2 0.00 0.00 0.00 65 1012.9
20260502211559 5 0 0.0 4.8 0.00 0.00 0.00 66 1012.8
20260502211059 5 0 0.0 6.4 0.00 0.00 0.00 65 1012.7
20260502210558 5 0 1.6 6.4 0.00 0.00 0.00 66 1012.9
20260502210115 5 0 0.0 6.4 0.00 0.00 0.00 66 1012.8
20260502205559 5 0 0.0 1.6 0.00 0.00 0.00 64 1012.9
20260502205102 5 0 0.0 1.6 0.00 0.00 0.00 64 1012.9
20260502204559 5 0 0.0 1.6 0.00 0.00 0.00 65 1012.8
20260502204058 5 0 0.0 4.8 0.00 0.00 0.00 63 1012.8
20260502203559 5 0 0.0 4.8 0.00 0.00 0.00 64 1012.8
20260502203100 5 0 0.0 1.6 0.00 0.00 0.00 64 1012.8
20260502202600 6 0 0.0 3.2 0.00 0.00 0.00 61 1012.9
20260502202059 6 0 0.0 3.2 0.00 0.00 0.00 63 1012.8
20260502201557 6 0 0.0 3.2 0.00 0.00 0.00 59 1012.8
20260502201059 6 0 0.0 11.3 0.00 0.00 0.00 57 1012.8
20260502200559 6 0 0.0 11.3 0.00 0.00 0.00 57 1013.0
20260502200100 6 0 0.0 4.8 0.00 0.00 0.00 56 1012.9
20260502195557 6 322 0.0 4.8 0.00 0.00 0.00 58 1012.9
20260502195056 6 0 0.0 4.8 0.00 0.00 0.00 54 1012.9
20260502194557 6 0 0.0 11.3 0.00 0.00 0.00 54 1013.0
20260502194103 6 0 0.0 11.3 0.00 0.00 0.00 54 1012.9
20260502193557 6 0 0.0 11.3 0.00 0.00 0.00 56 1013.0
20260502193104 6 0 0.0 3.2 0.00 0.00 0.00 57 1013.1
20260502192600 6 0 0.0 3.2 0.00 0.00 0.00 55 1013.0
20260502192057 6 0 0.0 3.2 0.00 0.00 0.00 55 1013.1
20260502191602 6 0 0.0 1.6 0.00 0.00 0.00 54 1013.1
20260502191056 6 0 0.0 1.6 0.00 0.00 0.00 55 1013.1
20260502190558 6 0 0.0 9.7 0.00 0.00 0.00 55 1013.2
20260502190108 6 0 0.0 9.7 0.00 0.00 0.00 53 1013.2
20260502185558 6 261 0.0 4.8 0.00 0.00 0.00 54 1013.1
20260502185057 6 0 0.0 4.8 0.00 0.00 0.00 54 1013.3
20260502184603 6 0 0.0 3.2 0.00 0.00 0.00 54 1013.1
20260502184102 6 0 0.0 4.8 0.00 0.00 0.00 53 1013.1
20260502183603 6 0 0.0 4.8 0.00 0.00 0.00 53 1013.2
20260502183111 6 343 0.0 1.6 0.00 0.00 0.00 52 1013.2
20260502182558 6 0 0.0 1.6 0.00 0.00 0.00 54 1013.2
20260502182059 6 0 0.0 1.6 0.00 0.00 0.00 59 1013.2
20260502181600 6 0 0.0 1.6 0.00 0.00 0.00 56 1013.2
20260502181059 6 0 0.0 3.2 0.00 0.00 0.00 54 1013.1
20260502180602 6 0 0.0 3.2 0.00 0.00 0.00 55 1013.1
20260502164058 5 0 1.6 8.0 0.00 0.00 0.00 56 1013.1
20260502163558 6 0 0.0 8.0 0.00 0.00 0.00 56 1013.2
20260502163112 6 340 0.0 6.4 0.00 0.00 0.00 55 1013.1
20260502162558 6 0 0.0 4.8 0.00 0.00 0.00 56 1013.2
20260502162057 6 0 0.0 4.8 0.00 0.00 0.00 57 1013.1
20260502161620 6 0 0.0 6.4 0.00 0.00 0.00 56 1013.1
20260502161058 6 0 0.0 6.4 0.00 0.00 0.00 56 1013.1
20260502160559 7 0 0.0 4.8 0.00 0.00 0.00 55 1013.2
20260502152102 5 0 0.0 8.0 0.00 0.00 0.00 67 1013.2
20260502151608 5 0 0.0 11.3 0.00 0.00 0.00 66 1013.4
20260502151056 5 0 0.0 11.3 0.00 0.00 0.00 69 1013.5
20260502150600 5 14 0.0 8.0 0.00 0.00 0.00 67 1013.4
20260502130557 3 0 0.0 8.0 0.00 0.00 0.00 80 1013.4
20260502130106 3 0 0.0 8.0 0.00 0.00 0.00 79 1013.4
20260502123558 3 0 0.0 6.4 0.00 0.00 0.00 84 1013.5
20260502123100 3 0 0.0 9.7 0.00 0.00 0.00 85 1013.5
20260502122558 3 0 0.0 9.7 0.00 0.00 0.00 86 1013.4
20260502122058 3 0 0.0 4.8 0.00 0.00 0.00 86 1013.5
20260502121559 3 0 0.0 4.8 0.00 0.00 0.00 87 1013.5
20260502121059 3 342 0.0 1.6 0.00 0.00 0.00 88 1013.4
20260502120603 2 0 0.0 1.6 0.00 0.00 0.00 90 1013.3
20260502115558 -17 0.0 0.0 0.00 0.00 0.00 1013.4
20260502115101 -17 0.0 0.0 0.00 0.00 0.00 1013.4
20260502114600 -17 0.0 0.0 0.00 0.00 0.00 1013.4
20260502114059 -17 0.0 0.0 0.00 0.00 0.00 1013.5
20260502113559 -17 0.0 0.0 0.00 0.00 0.00 1013.4
20260502113058 -17 0.0 0.0 0.00 0.00 0.00 1013.4
20260502112558 -17 0.0 0.0 0.00 0.00 0.00 1013.3
20260502112101 -17 0.0 0.0 0.00 0.00 0.00 1013.2
20260502111605 -17 0.0 0.0 0.00 0.00 0.00 1013.2
20260502111059 -17 0.0 0.0 0.00 0.00 0.00 1013.2
20260502110559 -17 0.0 0.0 0.00 0.00 0.00 1013.1
20260502110059 -17 0.0 0.0 0.00 0.00 0.00 1013.0
20260502105559 -17 0.0 0.0 0.00 0.00 0.00 1013.0
20260502105059 -17 0.0 0.0 0.00 0.00 0.00 1013.0
20260502104556 -17 0.0 0.0 0.00 0.00 0.00 1013.0
20260502104058 -17 0.0 0.0 0.00 0.00 0.00 1013.0
20260502103600 -17 0.0 0.0 0.00 0.00 0.00 1013.0
20260502103058 -17 0.0 0.0 0.00 0.00 0.00 1013.0
20260502102558 -17 0.0 0.0 0.00 0.00 0.00 1013.0
20260502102056 -17 0.0 0.0 0.00 0.00 0.00 1013.0
20260502101559 -17 0.0 0.0 0.00 0.00 0.00 1012.8
20260502101055 -17 0.0 0.0 0.00 0.00 0.00 1012.8
20260502100555 -17 0.0 0.0 0.00 0.00 0.00 1012.8
20260502091058 -17 0.0 0.0 0.00 0.00 0.00 1012.2
20260502090558 -17 0.0 0.0 0.00 0.00 0.00 1012.2
20260502090113 -17 0.0 0.0 0.00 0.00 0.00 1012.2
20260502071059 -17 0.0 0.0 0.00 0.00 0.00 1012.1
20260502070558 -17 0.0 0.0 0.00 0.00 0.00 1012.2
20260502070107 -17 0.0 0.0 0.00 0.00 0.00 1012.3
20260502065556 -17 0.0 0.0 0.00 0.00 0.00 1012.3
20260502065058 -17 0.0 0.0 0.00 0.00 0.00 1012.3
20260502064558 -17 0.0 0.0 0.00 0.00 0.00 1012.3
20260502064100 -17 0.0 0.0 0.00 0.00 0.00 1012.1
20260502063558 -17 0.0 0.0 0.00 0.00 0.00 1011.7
20260502063059 -17 0.0 0.0 0.00 0.00 0.00 1011.6
20260502062559 -17 0.0 0.0 0.00 0.00 0.00 1011.7
20260502062059 -17 0.0 0.0 0.00 0.00 0.00 1011.9
20260502061557 -17 0.0 0.0 0.00 0.00 0.00 1011.9
20260502061058 -17 0.0 0.0 0.00 0.00 0.00 1011.9
20260502060602 -17 0.0 0.0 0.00 0.00 0.00 1012.2
20260502060100 -17 0.0 0.0 0.00 0.00 0.00 1012.1
20260502055601 -17 0.0 0.0 0.00 0.00 0.00 1012.1
20260502055057 -17 0.0 0.0 0.00 0.00 0.00 1012.2
20260502054556 -17 0.0 0.0 0.00 0.00 0.00 1012.1
20260502054057 -17 0.0 0.0 0.00 0.00 0.00 1012.2
20260502053559 -17 0.0 0.0 0.00 0.00 0.00 1012.4
20260502053133 -17 0.0 0.0 0.00 0.00 0.00 1012.4
20260502052555 -17 0.0 0.0 0.00 0.00 0.00 1012.5
20260502052055 -17 0.0 0.0 0.00 0.00 0.00 1012.4
20260502051618 -17 0.0 0.0 0.00 0.00 0.00 1012.5
20260502051102 -17 0.0 0.0 0.00 0.00 0.00 1012.4
20260502050601 -17 0.0 0.0 0.00 0.00 0.00 1012.5
20260502050059 -17 0.0 0.0 0.00 0.00 0.00 1012.5
20260502045602 -17 0.0 0.0 0.00 0.00 0.00 1012.5
20260502045101 -17 0.0 0.0 0.00 0.00 0.00 1012.4
20260502044603 -17 0.0 0.0 0.00 0.00 0.00 1012.5
20260502044059 -17 0.0 0.0 0.00 0.00 0.00 1012.5
20260502043558 -17 0.0 0.0 0.00 0.00 0.00 1012.4
20260502043112 -17 0.0 0.0 0.00 0.00 0.00 1012.3
20260502042558 -17 0.0 0.0 0.00 0.00 0.00 1012.4
20260502042058 -17 0.0 0.0 0.00 0.00 0.00 1012.2
20260502041635 -17 0.0 0.0 0.00 0.00 0.00 1012.3
20260502041055 -17 0.0 0.0 0.00 0.00 0.00 1012.3
20260502040555 -17 0.0 0.0 0.00 0.00 0.00 1012.2
20260502040059 -17 0.0 0.0 0.00 0.00 0.00 1012.1
20260502035555 -17 0.0 0.0 0.00 0.00 0.00 1012.1
20260502035055 -17 0.0 0.0 0.00 0.00 0.00 1012.2
20260502034600 -17 0.0 0.0 0.00 0.00 0.00 1012.1
20260502034055 -17 0.0 0.0 0.00 0.00 0.00 1012.0
20260502033557 -17 0.0 0.0 0.00 0.00 0.00 1012.0
20260502033108 -17 0.0 0.0 0.00 0.00 0.00 1012.0
20260502032554 -17 0.0 0.0 0.00 0.00 0.00 1012.0
20260502032058 -17 0.0 0.0 0.00 0.00 0.00 1012.0
20260502031558 -17 0.0 0.0 0.00 0.00 0.00 1012.0
20260502031058 -17 0.0 0.0 0.00 0.00 0.00 1012.0
20260502030559 -17 0.0 0.0 0.00 0.00 0.00 1012.1
20260502030058 -17 0.0 0.0 0.00 0.00 0.00 1012.1
20260502025558 -17 0.0 0.0 0.00 0.00 0.00 1011.9
20260502025055 -17 0.0 0.0 0.00 0.00 0.00 1011.9
20260502024558 -17 0.0 0.0 0.00 0.00 0.00 1012.0
20260502024058 -17 0.0 0.0 0.00 0.00 0.00 1012.0
20260502023559 -17 0.0 0.0 0.00 0.00 0.00 1011.9
20260502023059 -17 0.0 0.0 0.00 0.00 0.00 1012.0
20260502022555 -17 0.0 0.0 0.00 0.00 0.00 1012.0
20260502022054 -17 0.0 0.0 0.00 0.00 0.00 1012.0
20260502021558 -17 0.0 0.0 0.00 0.00 0.00 1012.0
20260502021057 -17 0.0 0.0 0.00 0.00 0.00 1012.0
20260502020600 -17 0.0 0.0 0.00 0.00 0.00 1012.0
20260502020110 -17 0.0 0.0 0.00 0.00 0.00 1011.9
20260502015555 -17 0.0 0.0 0.00 0.00 0.00 1011.9
20260502015059 -17 0.0 0.0 0.00 0.00 0.00 1012.0
20260502014556 -17 0.0 0.0 0.00 0.00 0.00 1012.0
20260502014059 -17 0.0 0.0 0.00 0.00 0.00 1012.0
20260502013558 -17 0.0 0.0 0.00 0.00 0.00 1012.0
20260502013101 -17 0.0 0.0 0.00 0.00 0.00 1011.9
20260502012601 -17 0.0 0.0 0.00 0.00 0.00 1011.9
20260502012055 -17 0.0 0.0 0.00 0.00 0.00 1011.9
20260502011609 -17 0.0 0.0 0.00 0.00 0.00 1011.9
20260502011057 -17 0.0 0.0 0.00 0.00 0.00 1011.9
20260502010559 -17 0.0 0.0 0.00 0.00 0.00 1011.9
20260502010106 -17 0.0 0.0 0.00 0.00 0.00 1011.9
20260502005559 -17 0.0 0.0 0.00 0.00 0.00 1011.9
20260502005055 -17 0.0 0.0 0.00 0.00 0.00 1011.9
20260502004602 -17 0.0 0.0 0.00 0.00 0.00 1011.8
20260502004054 -17 0.0 0.0 0.00 0.00 0.00 1011.7
20260502003555 -17 0.0 0.0 0.00 0.00 0.00 1011.9
20260502003058 -17 0.0 0.0 0.00 0.00 0.00 1011.8
20260502002557 -17 0.0 0.0 0.00 0.00 0.00 1011.6